User: anonymous   Login
Location: Caltech
(34.1382°N, 118.1253°W)
Time: 03:51:18
(UTC-07:00)
Language:

ADEOS II - Orbit

View from above orbital plane
View from above orbital plane
View from above satellite
View from above satellite

Ground track
Ground track

The orbit data is extracted from the following two-line orbital elements,

1 27597U 02056A   17142.81479106 +.00000035 +00000-0 +31446-4 0  9994
2 27597 098.3672 113.4566 0002110 068.2464 291.8942 14.27285492751807
Epoch (UTC): 22 May 2017 19:33:17
Eccentricity: 0.0002110
inclination: 98.3672°
perigee height: 799 km
apogee height: 802 km
right ascension of ascending node: 113.4566°
argument of perigee: 68.2464°
revolutions per day: 14.27285492
mean anomaly at epoch: 291.8942°
orbit number at epoch: 75180

The dashed part of the orbit path shows where the satellite is in the earth's shadow,  

DLR